PulseSat

PulseSat

MOLNIYA 1-91

Last updated on Dec. 3, 2018, 12:08 a.m. UTC

1 25485U 98054A   18335.40852833  .00055781 -61220-6  14926-3 0  9992
2 25485  62.3549  25.4411 7449847 281.1055 282.4424  2.12991656147927
UTC
Height (km)
Latitude
Longitude
Inclination
Orbital Period

Next 30 passes for location: Hong Kong

Rise time Rise Azimuth (degrees) Set time Set Azimuth (degrees) Duration Max altitude (degrees)

No matching passes for this satellites

PulseSat

PulseSat is the new satellites software and hardware trackering solution by Pulsely.
Satellite Two Line Element Set source: US Air Force Space Command

Download PulseSat for iOS
© 2017 Pulsely Limited